Regional Weather Roundup
Issued by NWS

Home | Current Version | Previous Version | Graphics & Text | Print | Product List | Glossary On
Versions: 1 2 3 4 5 6 7 8 9 10 11 12 13 14 15 16 17 18 19 20 21 22 23 24 25 26 27 28 29 30 31 32 33 34 35 36 37 38 39 40 41 42 43 44 45 46 47 48 49 50
000
ASUS43 KMKX 270920
RWRWI

WISCONSIN REGIONAL WEATHER ROUNDUP
NATIONAL WEATHER SERVICE MILWAUKEE/SULLIVAN WI
300 AM CST TUE JAN 27 2015

NOTE: "FAIR" INDICATES FEW OR NO CLOUDS BELOW 12,000 FEET WITH NO
SIGNIFICANT WEATHER AND/OR OBSTRUCTIONS TO VISIBILITY.

WIZ001-002-006>008-014>016-023>028-271000-
NORTHWEST WISCONSIN

CITY           SKY/WX    TMP DP  RH WIND       PRES   REMARKS
SUPERIOR ARPT  CLOUDY    28  23  80 CALM      30.07R
ASHLAND        CLOUDY    26  23  88 NW3       30.05R
HAYWARD        CLOUDY    27  23  85 CALM      30.04R
SIREN          CLOUDY    29  23  77 NE5       30.06R WCI  24
CUMBERLAND     CLOUDY    28  23  80 N7        30.03R WCI  21
RICE LAKE      CLOUDY    29  24  82 N5        30.05R WCI  24
CHETEK         CLOUDY    28  24  84 N7        30.04R WCI  21
LADYSMITH      CLOUDY    26  24  92 N3        30.04R
EAU CLAIRE     CLOUDY    28  23  81 CALM      30.04R
MENOMONIE      CLOUDY    31  26  80 N6        30.05R WCI  25
NEW RICHMOND   CLOUDY    31  26  79 NE7       30.04S WCI  25
OSCEOLA        CLOUDY    32  26  78 N5        30.08R WCI  28
$$

WIZ003>005-009-010-017-018-271000-
NORTH CENTRAL WISCONSIN

CITY           SKY/WX    TMP DP  RH WIND       PRES   REMARKS
MANITOWISH WTR CLOUDY    19  18  96 CALM      29.99R
ARBOR VITAE    CLOUDY    22  19  91 CALM      29.99R
WOODRUFF       CLOUDY    22  19  91 CALM      29.99R
RHINELANDER    CLOUDY    20  17  88 CALM      29.99R
EAGLE RIVER    CLOUDY    20  16  85 SE3       29.99R
LAND O LAKES   CLOUDY    20  18  91 SE5       30.00R WCI  14
PHILLIPS       CLOUDY    19  18  95 CALM      30.01R
TOMAHAWK       CLOUDY    19  18  93 CALM      30.01R
MEDFORD        CLOUDY    20  19  96 CALM      30.00R FOG
MERRILL        CLOUDY    21  19  94 CALM      30.00R
$$

WIZ029-030-035-036-043>047-271000-
CENTRAL WISCONSIN

CITY           SKY/WX    TMP DP  RH WIND       PRES   REMARKS
WAUSAU         CLOUDY    22  19  89 N5        30.00R WCI  16
MOSINEE        CLOUDY    21  21 100 NW3       30.01R
MARSHFIELD     CLOUDY    23  20  88 N6        30.01R FOG     WCI  16
STEVENS POINT  CLOUDY    20  19  95 N3        30.01R
WAUPACA        CLOUDY    26  23  89 N3        30.02R FOG
WAUTOMA        CLOUDY    24  23  96 N5        30.02R FOG     WCI  18
WISC RAPIDS    CLOUDY    23  19  85 N6        30.02R WCI  16
CAMP DOUGLAS   CLOUDY    23  23 100 NW5       30.02R WCI  17
$$

WIZ011>013-019>022-031-037>040-048>050-271000-
NORTHEAST WISCONSIN

CITY           SKY/WX    TMP DP  RH WIND       PRES   REMARKS
ANTIGO         CLOUDY    20  20  98 E5        29.99R FOG     WCI  14
SHAWANO        CLOUDY    25  21  85 NE3       30.04R
OCONTO         CLOUDY    22  21  96 CALM      30.05R
STURGEON BAY   CLOUDY    21  16  79 CALM      30.07R
GREEN BAY      CLOUDY    24  20  84 E5        30.03R WCI  18
MANITOWOC      CLOUDY    25  20  81 E7        30.04R WCI  17
APPLETON       CLOUDY    25  23  93 NE5       30.01S WCI  19
CLINTONVILLE   CLOUDY    25  23  93 E3        30.03R
OSHKOSH        CLOUDY    25  21  85 NE6       30.01R WCI  18
$$

WIZ032>034-041-042-053>061-271000-
SOUTHWEST WISCONSIN

CITY           SKY/WX    TMP DP  RH WIND       PRES   REMARKS
LA CROSSE      CLOUDY    32  23  69 N8        30.03R WCI  25
SPARTA         CLOUDY    27  26  97 N7        30.04R WCI  19
VIROQUA        CLOUDY    28  27  98 N15       29.99R WCI  16
BOSCOBEL       CLOUDY    29  25  85 NE5       30.02R FOG     WCI  24
PRAIRIE DU CHI CLOUDY    32  27  81 NW8       30.02R WCI  25
PLATTEVILLE    CLOUDY    28  28  96 NW8       29.98R WCI  20
$$

WIZ056-057-062-063-064-067-068-271000-
SOUTH CENTRAL WISCONSIN

CITY           SKY/WX    TMP DP  RH WIND       PRES   REMARKS
REEDSBURG      CLOUDY    25  23  93 N6        30.00R WCI  18
BARABOO/DELLS  CLOUDY    23  22  93 CALM      30.00R FOG
LONE ROCK      CLOUDY    27  23  85 N10       30.01R WCI  17
MINERAL POINT  CLOUDY    28  28 100 N8        29.97R FOG     WCI  20
MADISON        CLOUDY    25  22  88 N5        29.99R FOG     WCI  19
MIDDLETON      CLOUDY    26  25  94 N3        29.99R
WATERTOWN      CLOUDY    24  24  99 CALM      29.98R FOG
MONROE         CLOUDY    27  27 100 N5        29.96R FOG     WCI  21
JANESVILLE     CLOUDY    28  27  93 CALM      29.98R FOG
$$

WIZ051-052-058>065-066-070>072-271000-
SOUTHEAST WISCONSIN

CITY           SKY/WX    TMP DP  RH WIND       PRES   REMARKS
MILWAUKEE      CLOUDY    27  22  81 NW3       29.98R
WAUKESHA       CLOUDY    23  23 100 N3        29.98R FOG
MILWAUKEE/TIMM CLOUDY    27  23  86 N5        29.99R WCI  21
RACINE         CLOUDY    26  23  88 N6        29.99R WCI  19
BURLINGTON     CLOUDY    23  22  97 NW3       29.97R FOG
KENOSHA        CLOUDY    27  24  89 N3        29.96R FOG
FOND DU LAC    CLOUDY    24  20  84 N5        30.01R WCI  18
SHEBOYGAN      CLOUDY    25  20  81 E7        30.01R WCI  17
WEST BEND      CLOUDY    27  23  86 N3        29.98R FOG
JUNEAU         CLOUDY    23  22  94 N6        30.00R FOG     WCI  16
$$

LSZ147-162-271000-
LAKE SUPERIOR

STATION/POSITION TIME  TEMP    WIND        PRES    WAVE
                       AIR SEA DIR/SP/G            HT/PER
                 (UTC) (F)     (DEG/KT/KT) (MB)    (FT/S)
DEVILS ISLAND    0900   29     340/ 11/ 12 1018.8R
PORT WING        0840   29     350/  9/ 12 1017.9R
SAXON HARBOR     0800   25        CALM     1016.6R
$$

LMZ867-665-643>646-271000-
LAKE MICHIGAN

STATION/POSITION TIME  TEMP    WIND        PRES    WAVE
                       AIR SEA DIR/SP/G            HT/PER
                 (UTC) (F)     (DEG/KT/KT) (MB)    (FT/S)
NORTHPORT PIER   0823   24     130/ 10/ 12 1017.9R
SISTER BAY       0843   23        CALM       N/A
KEWAUNEE LAKESHO 0800   25     120/ 11/ 15 1015.8R
SHEBOYGAN LAKESH 0900   26      80/ 12/ 14 1017.7R
PORT WASHINGTON  0840   29     120/ 10/ 13 1016.6R
KENOSHA   LAKESH 0900   27     340/  5/  6 1014.9R
$$

TC  - TEMPERATURE IN CELSIUS
VSB - VISIBILITY IN STATUTE MILES
WCI - WIND CHILL INDEX
HX  - HEAT INDEX




USA.gov is the U.S. government's official web portal to all federal, state and local government web resources and services.